Afton Municipal Airport, WY

1:28 AM MST on November 17, 2019 (GMT -0700)
Afton Municipal

Weather History for KAFO - September, 2019

Change the Weather History Date:

Tuesday, September 3, 2019

  Actual Average Record
Temperature  
Mean Temperature 63 °F -  
Max Temperature 82 °F 76 °F 87 °F (2017)
Min Temperature 44 °F 37 °F 32 °F (2018)
Degree Days  
Heating Degree Days 2    
Growing Degree Days 13 (Base 50)    
Moisture  
Dew Point 37 °F    
Average Humidity 45    
Maximum Humidity 71    
Minimum Humidity 19    
Precipitation  
Precipitation 0.00 in - - ()
Sea Level Pressure  
Sea Level Pressure 30.29 in    
Wind  
Wind Speed 3 mph ()    
Max Wind Speed 20 mph    
Max Gust Speed 24 mph    
Visibility 10.0 miles    
Events Rain    
Averages and records for this station are not official NWS values.
T = Trace of Precipitation, MM = Missing Value Source: Averaged Metar Reports

Daily Weather History Graph

Daily Weather History Graph

Search for Another Location

Airport or City:

Astronomy

Sep. 03, 2019 Rise Set
Actual Time 6:50 AM MDT 7:54 PM MDT
Civil Twilight 6:21 AM MDT 8:23 PM MDT
Nautical Twilight 5:46 AM MDT 8:58 PM MDT
Astronomical Twilight 5:10 AM MDT 9:34 PM MDT
Moon 11:54 AM MDT (9/3) 10:46 PM MDT (9/3)
Length of Visible Light 14h 02m
Length of Day
13h 04m
Waxing Crescent, 25% of the Moon is Illuminated
Sep 3
Waxing Crescent
Sep 5
First Quarter
Sep 13
Full
Sep 21
Last Quarter
Sep 28
New

Hourly Weather History & Observations

Time (MDT) Temp. Windchill Dew Point Humidity Pressure Visibility Wind Dir Wind Speed Gust Speed Precip Events Conditions
12:15 AM 46.4 °F 45.2 °F 33.8 °F 62% 30.28 in 10.0 mi South 3.5 mph - N/A   Clear
12:35 AM 50.0 °F - 32.0 °F 50% 30.28 in 10.0 mi Calm Calm - N/A   Clear
12:55 AM 48.2 °F - 32.0 °F 54% 30.28 in 10.0 mi Calm Calm - N/A   Clear
1:15 AM 48.2 °F - 32.0 °F 54% 30.29 in 10.0 mi Calm Calm - N/A   Clear
1:35 AM 50.0 °F - 32.0 °F 50% 30.29 in 10.0 mi Calm Calm - N/A   Clear
1:55 AM 46.4 °F - 32.0 °F 57% 30.29 in 10.0 mi Calm Calm - N/A   Clear
2:15 AM 46.4 °F 44.3 °F 32.0 °F 57% 30.29 in 10.0 mi SE 4.6 mph - N/A   Clear
2:35 AM 46.4 °F 45.2 °F 32.0 °F 57% 30.29 in 10.0 mi SSE 3.5 mph - N/A   Clear
2:55 AM 44.6 °F - 32.0 °F 61% 30.29 in 10.0 mi Calm Calm - N/A   Clear
3:15 AM 44.6 °F 43.1 °F 32.0 °F 61% 30.29 in 10.0 mi SSE 3.5 mph - N/A   Clear
3:35 AM 44.6 °F - 32.0 °F 61% 30.29 in 10.0 mi Calm Calm - N/A   Clear
3:55 AM 44.6 °F - 32.0 °F 61% 30.30 in 10.0 mi Calm Calm - N/A   Clear
4:15 AM 44.6 °F - 32.0 °F 61% 30.30 in 10.0 mi Calm Calm - N/A   Clear
4:35 AM 44.6 °F - 32.0 °F 61% 30.30 in 10.0 mi Calm Calm - N/A   Clear
4:55 AM 44.6 °F - 33.8 °F 66% 30.30 in 10.0 mi Calm Calm - N/A   Clear
5:15 AM 44.6 °F - 33.8 °F 66% 30.31 in 10.0 mi Calm Calm - N/A   Clear
5:35 AM 46.4 °F - 32.0 °F 57% 30.31 in 10.0 mi Calm Calm - N/A   Clear
5:55 AM 46.4 °F - 32.0 °F 57% 30.31 in 10.0 mi Calm Calm - N/A   Clear
6:15 AM 44.6 °F - 33.8 °F 66% 30.31 in 10.0 mi Calm Calm - N/A   Clear
6:35 AM 44.6 °F - 35.6 °F 71% 30.31 in 10.0 mi Calm Calm - N/A   Clear
6:55 AM 44.6 °F - 35.6 °F 71% 30.32 in 10.0 mi Calm Calm - N/A   Clear
7:15 AM 44.6 °F - 35.6 °F 71% 30.32 in 10.0 mi Calm Calm - N/A   Clear
7:35 AM 44.6 °F - 35.6 °F 71% 30.33 in 10.0 mi Calm Calm - N/A   Clear
7:55 AM 46.4 °F - 35.6 °F 66% 30.34 in 10.0 mi Calm Calm - N/A   Clear
8:15 AM 48.2 °F - 35.6 °F 62% 30.33 in 10.0 mi WSW 3.5 mph - N/A   Clear
8:35 AM 50.0 °F - 35.6 °F 58% 30.33 in 10.0 mi Calm Calm - N/A   Clear
8:55 AM 51.8 °F - 35.6 °F 54% 30.34 in 10.0 mi Calm Calm - N/A   Clear
9:15 AM 53.6 °F - 33.8 °F 47% 30.34 in 10.0 mi Calm Calm - N/A   Clear
9:35 AM 55.4 °F - 35.6 °F 47% 30.34 in 10.0 mi Calm Calm - N/A   Clear
9:55 AM 59.0 °F - 35.6 °F 42% 30.34 in 10.0 mi Calm Calm - N/A   Clear
10:15 AM 60.8 °F - 35.6 °F 39% 30.34 in 10.0 mi Calm Calm - N/A   Clear
10:35 AM 64.4 °F - 35.6 °F 34% 30.34 in 10.0 mi Calm Calm - N/A   Clear
10:55 AM 68.0 °F - 35.6 °F 30% 30.33 in 10.0 mi Calm Calm - N/A   Clear
11:15 AM 73.4 °F - 39.2 °F 29% 30.33 in 10.0 mi Calm Calm - N/A   Clear
11:35 AM 80.6 °F - 39.2 °F 23% 30.31 in 10.0 mi South 16.1 mph 20.7 mph N/A   Clear
11:55 AM 80.6 °F - 39.2 °F 23% 30.31 in 10.0 mi South 15.0 mph 18.4 mph N/A   Clear
12:15 PM 80.6 °F - 41.0 °F 24% 30.31 in 10.0 mi South 19.6 mph 24.2 mph N/A   Clear
12:35 PM 80.6 °F - 39.2 °F 23% 30.30 in 10.0 mi South 15.0 mph - N/A   Clear
12:55 PM 80.6 °F - 39.2 °F 23% 30.30 in 10.0 mi South 9.2 mph 19.6 mph N/A   Clear
1:15 PM 78.8 °F - 37.4 °F 23% 30.30 in 10.0 mi South 9.2 mph - N/A   Clear
1:35 PM 80.6 °F - 37.4 °F 21% 30.29 in 10.0 mi SSE 8.1 mph - N/A   Clear
1:55 PM 80.6 °F - 37.4 °F 21% 30.29 in 10.0 mi SE 6.9 mph - N/A   Clear
2:15 PM 82.4 °F - 37.4 °F 20% 30.28 in 10.0 mi SSE 6.9 mph - N/A   Clear
2:35 PM 82.4 °F - 35.6 °F 19% 30.27 in 10.0 mi ESE 3.5 mph - N/A   Clear
3:00 PM 80.6 °F - 37.4 °F 21% 30.27 in 10.0 mi West 4.6 mph - N/A   Clear
3:15 PM 80.6 °F - 35.6 °F 20% 30.27 in 10.0 mi West 3.5 mph - N/A   Clear
3:55 PM 80.6 °F - 35.6 °F 20% 30.25 in 10.0 mi South 9.2 mph - N/A   Mostly Cloudy
4:15 PM 78.8 °F - 41.0 °F 26% 30.26 in 10.0 mi South 15.0 mph - N/A   Overcast
4:35 PM 77.0 °F - 41.0 °F 28% 30.26 in 10.0 mi SSE 15.0 mph - N/A   Overcast
4:55 PM 71.6 °F - 42.8 °F 35% 30.27 in 10.0 mi ESE 11.5 mph 15.0 mph N/A Rain Light Rain
5:15 PM 73.4 °F - 42.8 °F 33% 30.27 in 10.0 mi East 8.1 mph - N/A   Overcast
5:35 PM 73.4 °F - 42.8 °F 33% 30.27 in 10.0 mi ENE 13.8 mph 20.7 mph N/A   Overcast
5:55 PM 73.4 °F - 42.8 °F 33% 30.26 in 10.0 mi ENE 10.4 mph 18.4 mph N/A   Overcast
6:15 PM 77.0 °F - 41.0 °F 28% 30.25 in 10.0 mi SSE 17.3 mph 21.9 mph N/A   Overcast
6:35 PM 77.0 °F - 39.2 °F 26% 30.26 in 10.0 mi SSE 13.8 mph - N/A   Overcast
6:55 PM 77.0 °F - 41.0 °F 28% 30.26 in 10.0 mi SSE 11.5 mph - N/A   Overcast
7:15 PM 73.4 °F - 39.2 °F 29% 30.26 in 10.0 mi South 12.7 mph - N/A   Mostly Cloudy
7:35 PM 71.6 °F - 41.0 °F 33% 30.27 in 10.0 mi South 9.2 mph - N/A   Scattered Clouds
7:55 PM 69.8 °F - 41.0 °F 35% 30.26 in 10.0 mi South 5.8 mph - N/A   Scattered Clouds
8:15 PM 68.0 °F - 41.0 °F 37% 30.26 in 10.0 mi SE 4.6 mph - N/A   Scattered Clouds
8:35 PM 60.8 °F - 44.6 °F 55% 30.27 in 10.0 mi West 3.5 mph - N/A   Clear
8:55 PM 57.2 °F - 42.8 °F 59% 30.27 in 10.0 mi WSW 4.6 mph - N/A   Clear
9:15 PM 59.0 °F - 42.8 °F 55% 30.27 in 10.0 mi East 3.5 mph - N/A   Clear
9:35 PM 60.8 °F - 41.0 °F 48% 30.26 in 10.0 mi NE 4.6 mph - N/A   Clear
9:55 PM 60.8 °F - 41.0 °F 48% 30.26 in 10.0 mi ESE 3.5 mph - N/A   Clear
10:15 PM 55.4 °F - 41.0 °F 58% 30.26 in 10.0 mi SW 3.5 mph - N/A   Clear
10:35 PM 55.4 °F - 41.0 °F 58% 30.26 in 10.0 mi South 4.6 mph - N/A   Clear
10:55 PM 53.6 °F - 41.0 °F 62% 30.26 in 10.0 mi South 6.9 mph - N/A   Clear
11:15 PM 53.6 °F - 41.0 °F 62% 30.27 in 10.0 mi SE 3.5 mph - N/A   Clear
11:35 PM 53.6 °F - 39.2 °F 58% 30.27 in 10.0 mi Calm Calm - N/A   Clear
11:55 PM 53.6 °F - 39.2 °F 58% 30.27 in 10.0 mi Calm Calm - N/A   Clear